User: anonymous   Login
Location: Newark
(49.8348°N, 24.0280°E)
Time: 15:20:27
(UTC+00:00)
Language:

deb Explorer IX - Orbit

View from above orbital plane
View from above orbital plane
View from above satellite
View from above satellite

Ground track
Ground track

The orbit data is extracted from the following two-line orbital elements,

1    85U 61004C   20019.47482332 +.00003369 +00000-0 +75444-3 0  9997
2    85 038.7712 065.7941 0384016 220.4620 136.6971 14.20248322909765
Epoch (UTC): 19 January 2020 11:23:44
Eccentricity: 0.0384016
inclination: 38.7712°
perigee height: 548 km
apogee height: 1101 km
right ascension of ascending node: 65.7941°
argument of perigee: 220.4620°
revolutions per day: 14.20248322
mean anomaly at epoch: 136.6971°
orbit number at epoch: 90976

The dashed part of the orbit path shows where the satellite is in the earth's shadow,  

DLR